Content
SEND FEEDBACK

Daily
Averages
Monthly
Summary
Mexico

PUEBLA - JARDINES DE SAN MANUEL, PUEBLA


Home > North America > Mexico > Puebla
Elevation: 2122 meters     Latitude: 19 00N     Longitude: 098 11W

WEATHER
 
SELECT A DAY
Number of Records: 121,093;   Date Range: 1/1/95 - 8/10/14
 
SHARE

PRINT THIS DATA

[ ← Previous Day ]
WEATHER ALMANAC - 14 JUNE, 2013
[ Next Day → ]
[ °F ]   °C
Weather ElementAverageHighLow
Temperature18.9 °C24.4 °C (3:40 pm)13 °C (5:49 am)
Dewpoint10.3 °C15.6 °C (9:45 pm)6.7 °C (3:40 pm)
Humidity57.5 %84 % (6:58 am)22 % (3:40 pm)
Barometer1022.4 hPa1028.4 hPa (10:47 am)1006.1 hPa (9:45 pm)
Wind Speed9.2 km/h24.1 km/h (3:46 pm)
Weather ElementAverage
Visibility10.9 km
Wind DirectionS (181.4 °)

Weather ElementTotal
Precipitation---
Cooling Degree Days0.4 (Base 18.3)
Growing Degree Days8.7 (Base 10)
Averaged from 24 records on 14 June, 2013
WEATHER CONDITIONS BREAKOUT
WIND DIRECTION BREAKOUT
WEATHER BY HOUR - 14 JUNE, 2013
[ °F ]   °C
Local TimeTemperatureDewpointHumidityBarometerVisibilityWind DirectionWind SpeedGust SpeedPrecipitationEventsConditions
3:50 AM15.6 °C10 °C62 %1009.5 hPa4.8 kmCalmPartly Cloudy
5:49 AM13 °C10 °C82 %1026.4 hPa9.7 kmSouth (180°)7.4 km/hClear
6:44 AM13 °C10 °C82 %1027.1 hPa9.7 kmSouth (190°)7.4 km/hPartly Cloudy
6:58 AM13.9 °C11.7 °C84 %1009.8 hPa4.8 kmCalmScattered Clouds
7:43 AM14 °C10 °C77 %1027.1 hPa9.7 kmCalmMostly Cloudy
8:52 AM18 °C11 °C64 %1028.1 hPa9.7 kmSouth (180°)5.6 km/hMostly Cloudy
9:44 AM18 °C9 °C56 %1028.1 hPa9.7 kmEast (90°)11.1 km/hMostly Cloudy
9:50 AM19.4 °C7.8 °C36 %1012.5 hPa19.3 kmENE (60°)3.5 km/hClear
10:47 AM20 °C9 °C49 %1028.4 hPa9.7 kmSSE (150°)5.6 km/hScattered Clouds
11:48 AM21 °C9 °C46 %1028.1 hPa9.7 kmESE (120°)13 km/hPartly Cloudy
12:44 PM22 °C9 °C43 %1027.4 hPa9.7 kmSSE (160°)16.7 km/hPartly Cloudy
12:50 PM23.9 °C7.8 °C25 %1011.5 hPa19.3 kmESE (120°)3.5 km/hScattered Clouds
1:44 PM24 °C11 °C44 %1026.4 hPa9.7 kmSE (140°)20.4 km/hMostly Cloudy
2:45 PM24 °C9 °C38 %1025.7 hPa9.7 kmSSW (210°)11.1 km/hMostly Cloudy
3:40 PM24.4 °C6.7 °C22 %1006.8 hPa19.3 kmSE (140°)7.2 km/hPartly Cloudy
3:46 PM21 °C11 °C53 %1025.7 hPa9.7 kmNorth (350°)24.1 km/hMostly Cloudy
4:49 PM19 °C11 °C60 %1025.1 hPa9.7 kmNNW (340°)13 km/hOvercast
5:46 PM20 °C11 °C56 %1024.7 hPa9.7 kmNW (310°)9.3 km/hOvercast
6:44 PM20 °C11 °C56 %1024.7 hPa12.9 kmNNW (330°)9.3 km/hOvercast
7:49 PM19 °C11 °C60 %1025.7 hPa12.9 kmNNE (30°)18.5 km/hOvercast
8:47 PM18 °C12 °C68 %1026.4 hPa12.9 kmNNW (340°)13 km/hOvercast
9:45 PM18.3 °C15.6 °C78 %1006.1 hPa4.8 kmCalmRainLight Drizzle
9:45 PM18 °C12 °C68 %1026.8 hPa12.9 kmNNW (330°)11.1 km/hOvercast
10:42 PM17 °C12 °C72 %1026.8 hPa12.9 kmNE (40°)7.4 km/hOvercast
Hourly data recorded from MMPB, located 0 kilometers away from Puebla - Jardines de San Manuel, Puebla







STORIES FROM OUR PARTNERS